Location: Beaver Dam Church
(34.5318°N, 88.9828°W)
Time: 10:33:52
(UTC+00:00)

YAOGAN 1 - Pass Details

Date: 29 October 2020
Orbit: 618 x 620 km, 97.9° (Epoch: 25 November)

Event Time Altitude Azimuth Distance (km) Brightness Sun altitude
Rises 23:41:09 0° 128° (SE) 2,885 5.6 -8.1°
Reaches altitude 10° 23:43:57 10° 109° (ESE) 1,983 4.6 -8.7°
Maximum altitude 23:46:44 17° 68° (ENE) 1,572 4.0 -9.2°
Drops below altitude 10° 23:49:32 10° 28° (NNE) 1,991 4.8 -9.8°
Sets 23:52:21 0° 8° (N) 2,901 5.8 -10.4°
